STARLINK-30307, 57747

Orbit data source: Space-Track

STARLINK-30307, 57747 is a payload satellite owned by SpaceX/Seattle (US) in LEO that was launched on Fri, 01 Sep 2023 UTC via an FALCON 9 launch vehicle from the Air Force Eastern Test Range (AFETR). Payload-class satellites include a variety of spacecraft equipped with specific instruments for various scientific and technological missions. These include communications satellites like Starlink; space stations such as the ISS; scientific satellites like the Hubble; Earth observation satellites from companies like Planet Labs, Umbra, and HawkEye 360; GPS; miniature CubeSats for education and research; and military/defense satellites.

Loading next visibility...
Identifier
57747, 2023-131R
Orbit
LEO
Country
Flag of USUS
Related business
Manufacturer
SpaceX/Seattle
Mission
Operational Commercial Communications
Bus & Motor
STARLINK V2M, Unknown motor
Mass
730 kg wet, ~700 kg dry
Launch date (UTC)
2023-09-01 (3 years ago)
Launch vehicle
FALCON 9
Launch site
Air Force Eastern Test Range (AFETR)
Object type
Payload
Rocket body
Debris
Shape & HBR
Box + 2 Pan, 17.7 m
Radar Cross Section
33.884 m², Large (>1 m²)

Expand to show TLE details & history
Last TLE update: 2 days ago

TLE from 2 days ago
0 STARLINK-30307
1 57747U 23131R   26171.40635800  .00000896  00000-0  42095-4 0  9990
2 57747  43.0020 312.5329 0001526 273.5556  86.5121 15.27577872155626
Epoch: 2026-06-20T09:45Z
TLE epoch observation values (Epoch: 2026-06-20T09:45:09.331Z)
Latitude
-0.00001°
Longitude
-102.37743°
Altitude
482.768 km
Speed
7.626 km/s
True Right ascension
20h 50m 07s
True Declination
0° 00' 00"
Sunlit
Object was in full shadow at epoch
Visualization orbit readout
Latitude
Unknown
Longitude
Unknown
Altitude
Unknown
Speed
Unknown
Apparent Right ascension
Unknown
Apparent Declination
Unknown
Sunlit
N/A
Visualization observer readout
Local Sidereal Time
21:23:56
Azimuth
Unknown
Elevation
Unknown
Doppler factor
Unknown
Orbital elements
Apogee altitude
486.048 km
Perigee altitude
483.953 km
Semi-major axis
6,863.137 km
Eccentricity
0.00015
Inclination
43.002°
RAAN
312.5329°
Arg. of periapsis
273.5556°
True anomaly
86.52955°
Mean anomaly
86.5121°
Eccentric anomaly
86.52083°
Mean motion
3.81733 °/min
Orbital period
94.31 mins
BSTAR
0.000042095
Loading maneuver chart data...
Computing Atmospheric mass density...
Loading historical data...
Loading historical data...
Loading historical data...
Loading historical data...
Loading historical data...
Loading historical data...
Loading historical data...

Documentation

Showing up to 5 results
|